23:28
Airports
History
Links
Donate
Help keep this website running!
PayPal
Bitcoin
Information on this page is community maintained and may be outdated or inaccurate and is intended for reference only or PC simulator navigating.
Always use approved charts for navigating.
EGLB
Brooklands
Brooklands (EGLB)
Weybridge, England, United Kingdom
(U)
Lat/Lng:51° 20' 59.51" N / 0° 28' 12.67" W
51.349863 / -0.470187
Elevation:50'ft 15mMSL
ID / ICAO:EGLB
Runways:1
Longest:(01-19) 225.3m 739ft Asphalt
Distance To
Airport ID:
Nearby VORs <50NM
Nearby NDBs
Nearby WeatherUpdated 05-24-17 23:20 GMT
Nearby weather at EGLL, London Heathrow located 8.4 nautical miles from EGLB
Altimeter: 30.27
Visibility: 6.2 statute miles
Wind: 3 knots (VRB°)
Temp: 17°c 63°f
Humidity: 82.5%

METAR: EGLL 242320Z AUTO VRB03KT 9999 NCD 17/14 Q1025 NOSIG

(Powered by phpweather)
Runway 01 / 19
Dimensions:225.3 x 7.9m 739' x 26'ft
Surface:Asphalt
Runway 01 [A]Runway 19 [B]
Heading:007°TH 187°TH
Lat:
Lng:
51° 20' 55.78"N
0° 28' 13.41"W
51° 21' 3.23"N
0° 28' 11.93"W
User Notes and Comments
Google Map
Nearby Airports
(C) Fairoaks 3.8 NM
EGTF W 268°
4 Rushett Farm Chessington 6.8 NM
EG86 E 97°
(C) London Heathrow 8.4 NM
EGLL (WX) N
4 Ascot Heliport [H] 9.5 NM
EGLT WNW 300°
(C) RAF Northolt 14.2 NM
EGWU (WX) N
(C) Farnborough 14.2 NM
EGLF (WX) WSW 248°
(C) Dunsfold 16.3 NM
EGTD S 190°
VFR Chart
Flight Planning at SkyVector.com